TimeEST,TemperatureF,Dew PointF,Humidity,Sea Level PressureIn,VisibilityMPH,Wind Direction,Wind SpeedMPH,Gust SpeedMPH,PrecipitationIn,Events,Conditions,WindDirDegrees,DateUTC
12:54 AM,37.9,28.9,70,30.07,10.0,NNW,3.5,-,N/A,,Clear,330,2012-12-28 05:54:00
1:54 AM,36.0,28.9,76,30.09,10.0,NNW,4.6,-,N/A,,Clear,330,2012-12-28 06:54:00
2:54 AM,36.0,28.0,73,30.09,10.0,NNW,4.6,-,N/A,,Clear,330,2012-12-28 07:54:00
3:54 AM,34.0,28.0,79,30.11,10.0,Calm,Calm,-,N/A,,Clear,0,2012-12-28 08:54:00
4:54 AM,32.0,28.9,88,30.12,10.0,Calm,Calm,-,N/A,,Clear,0,2012-12-28 09:54:00
5:54 AM,30.9,28.0,89,30.14,10.0,Calm,Calm,-,N/A,,Clear,0,2012-12-28 10:54:00
6:54 AM,32.0,27.0,82,30.17,10.0,Calm,Calm,-,N/A,,Clear,0,2012-12-28 11:54:00
7:54 AM,33.1,27.0,78,30.18,10.0,Calm,Calm,-,N/A,,Unknown,0,2012-12-28 12:54:00
8:54 AM,37.0,28.0,70,30.18,10.0,Calm,Calm,-,N/A,,Clear,0,2012-12-28 13:54:00
9:54 AM,39.9,28.9,65,30.20,10.0,Calm,Calm,-,N/A,,Clear,0,2012-12-28 14:54:00
10:54 AM,42.1,28.9,60,30.20,10.0,Calm,Calm,-,N/A,,Clear,0,2012-12-28 15:54:00
11:54 AM,45.0,28.9,53,30.17,10.0,NE,3.5,-,N/A,,Clear,50,2012-12-28 16:54:00
1:54 PM,46.0,28.9,51,30.13,10.0,Calm,Calm,-,N/A,,Clear,0,2012-12-28 18:54:00
2:54 PM,46.0,28.9,51,30.11,10.0,Calm,Calm,-,N/A,,Clear,0,2012-12-28 19:54:00
3:54 PM,46.0,30.0,54,30.11,10.0,Calm,Calm,-,N/A,,Clear,0,2012-12-28 20:54:00
4:54 PM,45.0,30.9,58,30.09,10.0,Calm,Calm,-,N/A,,Clear,0,2012-12-28 21:54:00
5:54 PM,41.0,34.0,76,30.09,10.0,Calm,Calm,-,N/A,,Clear,0,2012-12-28 22:54:00
6:54 PM,39.9,34.0,79,30.09,10.0,Calm,Calm,-,N/A,,Clear,0,2012-12-28 23:54:00
7:54 PM,41.0,36.0,82,30.09,10.0,Calm,Calm,-,N/A,,Mostly Cloudy,0,2012-12-29 00:54:00
8:54 PM,43.0,35.1,74,30.09,10.0,East,3.5,-,N/A,,Overcast,80,2012-12-29 01:54:00
9:17 PM,42.8,33.8,70,30.10,10.0,East,4.6,-,N/A,,Overcast,80,2012-12-29 02:17:00
9:38 PM,42.8,33.8,70,30.10,10.0,East,3.5,-,N/A,,Overcast,80,2012-12-29 02:38:00
9:54 PM,43.0,34.0,71,30.10,10.0,East,3.5,-,N/A,,Overcast,80,2012-12-29 02:54:00
10:54 PM,44.1,34.0,68,30.07,10.0,East,3.5,-,N/A,,Overcast,90,2012-12-29 03:54:00
11:54 PM,45.0,35.1,68,30.06,10.0,East,4.6,-,N/A,,Overcast,80,2012-12-29 04:54:00